Location: Newark
(31.5350°N, 35.0986°E)
Time: 18:17:18
(UTC+00:00)

Transit 4A - Visible Passes

Search period start: 17 October 2019 00:00
Search period end: 27 October 2019 00:00
Orbit: 866 x 978 km, 66.8° (Epoch: 16 October)

Date Brightness Start Highest point End Pass type
(mag) Time Alt. Az. Time Alt. Az. Time Alt. Az.
17 Oct 9.4 01:48:15 10° S 01:54:00 37° ESE 01:59:44 10° NE visible
18 Oct 8.6 01:57:00 10° S 02:03:13 58° ESE 02:09:23 10° NE visible
19 Oct 7.9 02:06:07 10° SSW 02:12:30 88° ESE 02:18:50 10° NNE visible
20 Oct 10.3 00:33:17 13° SE 00:36:04 17° ESE 00:40:00 10° ENE visible
20 Oct 8.0 02:16:57 17° SW 02:21:52 61° WNW 02:28:05 10° NNE visible
21 Oct 9.6 00:44:20 27° ESE 00:45:10 28° ESE 00:50:23 10° NE visible
21 Oct 8.4 02:27:58 24° WSW 02:31:17 40° WNW 02:37:10 10° N visible
22 Oct 9.0 00:54:58 42° E 00:54:58 42° E 01:00:15 10° NE visible
22 Oct 8.9 02:38:34 22° W 02:40:48 27° NW 02:46:03 10° N visible
23 Oct 8.7 01:05:18 48° NE 01:05:18 48° NE 01:09:50 10° NNE visible
23 Oct 9.3 02:48:53 17° WNW 02:50:25 18° NW 02:54:36 10° N visible
24 Oct 8.9 01:15:24 39° NNE 01:15:24 39° NNE 01:19:13 10° NNE visible
24 Oct 9.7 02:58:59 11° WNW 03:00:09 12° NW 03:02:26 10° NNW visible
25 Oct 9.2 01:25:21 29° N 01:25:21 29° N 01:28:24 10° NNE visible
26 Oct 9.6 01:35:09 21° N 01:35:09 21° N 01:37:24 10° N visible
